Time,TemperatureF,DewpointF,PressureIn,WindDirection,WindDirectionDegrees,WindSpeedMPH,WindSpeedGustMPH,Humidity,HourlyPrecipIn,Conditions,Clouds,dailyrainin,SoftwareType,DateUTC
2013-04-02 00:00:00,27.0,21.4,29.14,NNE,28,11.0,11.0,79,0.00,,,0.00,Wunderground v.1.15,2013-04-02 04:00:00,
2013-04-02 00:09:00,27.0,21.1,29.14,NNE,15,11.0,11.0,78,0.00,,,0.00,Wunderground v.1.15,2013-04-02 04:09:00,
2013-04-02 00:14:00,26.9,21.0,29.14,NNE,24,10.0,12.0,78,0.00,,,0.00,Wunderground v.1.15,2013-04-02 04:14:00,
2013-04-02 00:19:00,27.0,21.4,29.14,NNE,31,8.0,11.0,79,0.00,,,0.00,Wunderground v.1.15,2013-04-02 04:19:00,
2013-04-02 00:24:00,27.2,21.2,29.14,NNE,19,10.0,11.0,78,0.00,,,0.00,Wunderground v.1.15,2013-04-02 04:24:00,
2013-04-02 00:30:00,27.2,20.6,29.14,NE,38,12.0,12.0,76,0.00,,,0.00,Wunderground v.1.15,2013-04-02 04:30:00,
2013-04-02 00:34:00,27.0,20.4,29.14,NE,41,10.0,12.0,76,0.00,,,0.00,Wunderground v.1.15,2013-04-02 04:34:00,
2013-04-02 00:39:00,26.9,20.3,29.14,NNE,27,10.0,10.0,76,0.00,,,0.00,Wunderground v.1.15,2013-04-02 04:39:00,
2013-04-02 00:44:00,26.9,20.3,29.14,NNE,33,10.0,10.0,76,0.00,,,0.00,Wunderground v.1.15,2013-04-02 04:44:00,
2013-04-02 00:49:00,27.0,20.4,29.14,NNW,340,9.0,11.0,76,0.00,,,0.00,Wunderground v.1.15,2013-04-02 04:49:00,
2013-04-02 00:54:00,27.0,20.1,29.14,NNE,32,11.0,11.0,75,0.00,,,0.00,Wunderground v.1.15,2013-04-02 04:54:00,
2013-04-02 01:04:00,26.9,19.7,29.14,NNE,16,11.0,20.0,74,0.00,,,0.00,Wunderground v.1.15,2013-04-02 05:04:00,
2013-04-02 01:09:00,27.2,20.3,29.15,NNE,12,11.0,11.0,75,0.00,,,0.00,Wunderground v.1.15,2013-04-02 05:09:00,
2013-04-02 01:14:00,27.3,20.4,29.15,North,355,10.0,20.0,75,0.00,,,0.00,Wunderground v.1.15,2013-04-02 05:14:00,
2013-04-02 01:19:00,27.3,20.4,29.15,NNE,15,9.0,20.0,75,0.00,,,0.00,Wunderground v.1.15,2013-04-02 05:19:00,
2013-04-02 01:24:00,27.3,20.4,29.15,NNE,15,9.0,20.0,75,0.00,,,0.00,Wunderground v.1.15,2013-04-02 05:24:00,
2013-04-02 01:29:00,27.2,20.0,29.15,NNE,30,10.0,20.0,74,0.00,,,0.00,Wunderground v.1.15,2013-04-02 05:29:00,
2013-04-02 01:39:00,26.9,19.7,29.15,NE,39,12.0,12.0,74,0.00,,,0.00,Wunderground v.1.15,2013-04-02 05:39:00,
2013-04-02 01:44:00,26.9,20.0,29.15,NNW,346,11.0,20.0,75,0.00,,,0.00,Wunderground v.1.15,2013-04-02 05:44:00,
2013-04-02 01:49:00,27.0,19.8,29.15,NNE,14,10.0,20.0,74,0.00,,,0.00,Wunderground v.1.15,2013-04-02 05:49:00,
2013-04-02 01:54:00,27.1,19.9,29.15,NNE,24,10.0,20.0,74,0.00,,,0.00,Wunderground v.1.15,2013-04-02 05:54:00,
2013-04-02 01:59:00,27.0,20.1,29.15,NNE,19,10.0,10.0,75,0.00,,,0.00,Wunderground v.1.15,2013-04-02 05:59:00,
2013-04-02 02:04:00,27.1,20.2,29.15,NNE,28,11.0,11.0,75,0.00,,,0.00,Wunderground v.1.15,2013-04-02 06:04:00,
2013-04-02 02:09:00,27.1,20.2,29.15,North,10,10.0,10.0,75,0.00,,,0.00,Wunderground v.1.15,2013-04-02 06:09:00,
2013-04-02 02:14:00,27.0,19.8,29.15,North,360,9.0,20.0,74,0.00,,,0.00,Wunderground v.1.15,2013-04-02 06:14:00,
2013-04-02 02:19:00,27.1,19.9,29.15,NNE,15,9.0,20.0,74,0.00,,,0.00,Wunderground v.1.15,2013-04-02 06:19:00,
2013-04-02 02:25:00,26.9,20.0,29.15,NNE,32,9.0,20.0,75,0.00,,,0.00,Wunderground v.1.15,2013-04-02 06:25:00,
2013-04-02 02:30:00,26.8,20.2,29.15,NNE,18,9.0,9.0,76,0.00,,,0.00,Wunderground v.1.15,2013-04-02 06:30:00,
2013-04-02 02:39:00,26.9,20.0,29.15,NNE,15,8.0,20.0,75,0.00,,,0.00,Wunderground v.1.15,2013-04-02 06:39:00,
2013-04-02 02:44:00,26.9,20.0,29.15,North,9,10.0,20.0,75,0.00,,,0.00,Wunderground v.1.15,2013-04-02 06:44:00,
2013-04-02 02:49:00,26.9,20.3,29.15,North,355,9.0,9.0,76,0.00,,,0.00,Wunderground v.1.15,2013-04-02 06:49:00,
2013-04-02 02:54:00,26.8,20.2,29.15,NNE,26,8.0,12.0,76,0.00,,,0.00,Wunderground v.1.15,2013-04-02 06:54:00,
2013-04-02 02:59:00,26.7,19.8,29.15,North,355,8.0,8.0,75,0.00,,,0.00,Wunderground v.1.15,2013-04-02 06:59:00,
2013-04-02 03:04:00,26.7,20.1,29.14,NNE,18,9.0,9.0,76,0.00,,,0.00,Wunderground v.1.15,2013-04-02 07:04:00,
2013-04-02 03:14:00,26.7,19.5,29.14,NNW,341,9.0,9.0,74,0.00,,,0.00,Wunderground v.1.15,2013-04-02 07:14:00,
2013-04-02 03:19:00,26.6,19.4,29.14,NNE,27,10.0,20.0,74,0.00,,,0.00,Wunderground v.1.15,2013-04-02 07:19:00,
2013-04-02 03:24:00,26.6,19.4,29.15,NNE,27,10.0,20.0,74,0.00,,,0.00,Wunderground v.1.15,2013-04-02 07:24:00,
2013-04-02 03:29:00,26.7,19.2,29.15,NNW,341,10.0,10.0,73,0.00,,,0.00,Wunderground v.1.15,2013-04-02 07:29:00,
2013-04-02 03:34:00,26.7,19.2,29.15,NNE,18,10.0,20.0,73,0.00,,,0.00,Wunderground v.1.15,2013-04-02 07:34:00,
2013-04-02 03:44:00,26.7,19.2,29.15,NNE,33,10.0,11.0,73,0.00,,,0.00,Wunderground v.1.15,2013-04-02 07:44:00,
2013-04-02 03:49:00,26.6,19.1,29.15,North,5,9.0,9.0,73,0.00,,,0.00,Wunderground v.1.15,2013-04-02 07:49:00,
2013-04-02 03:54:00,26.7,19.5,29.15,North,5,7.0,20.0,74,0.00,,,0.00,Wunderground v.1.15,2013-04-02 07:54:00,
2013-04-02 03:59:00,26.7,20.1,29.14,NNW,338,7.0,20.0,76,0.00,,,0.00,Wunderground v.1.15,2013-04-02 07:59:00,
2013-04-02 04:04:00,26.6,20.1,29.15,NNW,345,8.0,20.0,76,0.00,,,0.00,Wunderground v.1.15,2013-04-02 08:04:00,
2013-04-02 04:09:00,26.7,20.1,29.14,NNE,22,8.0,20.0,76,0.00,,,0.00,Wunderground v.1.15,2013-04-02 08:09:00,
2013-04-02 04:14:00,26.6,19.7,29.15,NNE,14,8.0,20.0,75,0.00,,,0.00,Wunderground v.1.15,2013-04-02 08:14:00,
2013-04-02 04:19:00,26.7,19.5,29.15,NNW,343,8.0,8.0,74,0.00,,,0.00,Wunderground v.1.15,2013-04-02 08:19:00,
2013-04-02 04:24:00,26.7,19.5,29.15,NNE,12,8.0,12.0,74,0.00,,,0.00,Wunderground v.1.15,2013-04-02 08:24:00,
2013-04-02 04:29:00,26.7,19.5,29.14,North,10,8.0,20.0,74,0.00,,,0.00,Wunderground v.1.15,2013-04-02 08:29:00,
2013-04-02 04:34:00,26.6,19.7,29.15,NNE,19,8.0,20.0,75,0.00,,,0.00,Wunderground v.1.15,2013-04-02 08:34:00,
2013-04-02 04:39:00,26.7,19.8,29.15,NNW,348,6.0,20.0,75,0.00,,,0.00,Wunderground v.1.15,2013-04-02 08:39:00,
2013-04-02 04:49:00,26.8,19.3,29.15,North,5,8.0,8.0,73,0.00,,,0.00,Wunderground v.1.15,2013-04-02 08:49:00,
2013-04-02 04:54:00,26.7,18.9,29.15,NNW,339,9.0,9.0,72,0.00,,,0.00,Wunderground v.1.15,2013-04-02 08:54:00,
2013-04-02 04:59:00,26.7,18.9,29.15,NNE,28,9.0,9.0,72,0.00,,,0.00,Wunderground v.1.15,2013-04-02 08:59:00,
2013-04-02 05:04:00,26.6,18.8,29.15,NNE,13,8.0,20.0,72,0.00,,,0.00,Wunderground v.1.15,2013-04-02 09:04:00,
2013-04-02 05:09:00,26.7,18.9,29.15,NNE,12,8.0,20.0,72,0.00,,,0.00,Wunderground v.1.15,2013-04-02 09:09:00,
2013-04-02 05:14:00,26.7,18.6,29.15,NNW,339,9.0,20.0,71,0.00,,,0.00,Wunderground v.1.15,2013-04-02 09:14:00,
2013-04-02 05:24:00,26.6,18.5,29.15,NNW,345,11.0,20.0,71,0.00,,,0.00,Wunderground v.1.15,2013-04-02 09:24:00,
2013-04-02 05:29:00,26.5,18.7,29.15,North,5,11.0,11.0,72,0.00,,,0.00,Wunderground v.1.15,2013-04-02 09:29:00,
2013-04-02 05:34:00,26.5,19.0,29.16,NNE,26,8.0,14.0,73,0.00,,,0.00,Wunderground v.1.15,2013-04-02 09:34:00,
2013-04-02 05:39:00,26.5,19.0,29.16,North,355,8.0,8.0,73,0.00,,,0.00,Wunderground v.1.15,2013-04-02 09:39:00,
2013-04-02 05:44:00,26.5,19.0,29.16,NNE,27,9.0,14.0,73,0.00,,,0.00,Wunderground v.1.15,2013-04-02 09:44:00,
2013-04-02 05:54:00,26.1,18.6,29.16,NNE,32,12.0,20.0,73,0.00,,,0.00,Wunderground v.1.15,2013-04-02 09:54:00,
2013-04-02 05:59:00,26.0,19.5,29.16,North,355,9.0,9.0,76,0.00,,,0.00,Wunderground v.1.15,2013-04-02 09:59:00,
2013-04-02 06:04:00,25.8,19.0,29.16,North,5,7.0,20.0,75,0.00,,,0.00,Wunderground v.1.15,2013-04-02 10:04:00,
2013-04-02 06:09:00,25.9,19.1,29.16,North,360,8.0,20.0,75,0.00,,,0.00,Wunderground v.1.15,2013-04-02 10:09:00,
2013-04-02 06:14:00,26.1,18.9,29.16,North,360,7.0,20.0,74,0.00,,,0.00,Wunderground v.1.15,2013-04-02 10:14:00,
2013-04-02 06:19:00,26.2,19.0,29.17,NNW,339,7.0,7.0,74,0.00,,,0.00,Wunderground v.1.15,2013-04-02 10:19:00,
2013-04-02 06:25:00,26.3,19.1,29.17,North,355,7.0,20.0,74,0.00,,,0.00,Wunderground v.1.15,2013-04-02 10:25:00,
2013-04-02 06:30:00,26.3,19.8,29.17,North,355,7.0,7.0,76,0.00,,,0.00,Wunderground v.1.15,2013-04-02 10:30:00,
2013-04-02 06:35:00,26.3,19.8,29.17,North,5,7.0,20.0,76,0.00,,,0.00,Wunderground v.1.15,2013-04-02 10:35:00,
2013-04-02 06:40:00,26.3,20.1,29.17,NNE,19,6.0,20.0,77,0.00,,,0.00,Wunderground v.1.15,2013-04-02 10:40:00,
2013-04-02 06:49:00,26.2,18.4,29.17,NNE,18,8.0,8.0,72,0.00,,,0.00,Wunderground v.1.15,2013-04-02 10:49:00,
2013-04-02 06:54:00,26.1,18.0,29.18,NNE,15,9.0,9.0,71,0.00,,,0.00,Wunderground v.1.15,2013-04-02 10:54:00,
2013-04-02 06:59:00,26.2,18.1,29.18,North,11,8.0,20.0,71,0.00,,,0.00,Wunderground v.1.15,2013-04-02 10:59:00,
2013-04-02 07:04:00,26.1,18.0,29.18,North,360,9.0,20.0,71,0.00,,,0.00,Wunderground v.1.15,2013-04-02 11:04:00,
2013-04-02 07:09:00,26.1,18.0,29.18,North,355,9.0,9.0,71,0.00,,,0.00,Wunderground v.1.15,2013-04-02 11:09:00,
2013-04-02 07:14:00,26.2,18.7,29.19,North,350,7.0,20.0,73,0.00,,,0.00,Wunderground v.1.15,2013-04-02 11:14:00,
2013-04-02 07:19:00,26.4,19.5,29.19,NNW,344,5.0,20.0,75,0.00,,,0.00,Wunderground v.1.15,2013-04-02 11:19:00,
2013-04-02 07:29:00,27.4,20.8,29.19,NNE,31,7.0,20.0,76,0.00,,,0.00,Wunderground v.1.15,2013-04-02 11:29:00,
2013-04-02 07:34:00,26.5,20.3,29.19,NNW,348,9.0,20.0,77,0.00,,,0.00,Wunderground v.1.15,2013-04-02 11:34:00,
2013-04-02 07:39:00,26.2,20.6,29.19,NNE,30,8.0,8.0,79,0.00,,,0.00,Wunderground v.1.15,2013-04-02 11:39:00,
2013-04-02 07:44:00,26.0,20.7,29.20,North,9,6.0,20.0,80,0.00,,,0.00,Wunderground v.1.15,2013-04-02 11:44:00,
2013-04-02 07:49:00,26.1,20.8,29.20,North,355,7.0,7.0,80,0.00,,,0.00,Wunderground v.1.15,2013-04-02 11:49:00,
2013-04-02 07:54:00,26.1,20.8,29.20,NNE,15,9.0,10.0,80,0.00,,,0.00,Wunderground v.1.15,2013-04-02 11:54:00,
2013-04-02 08:04:00,25.7,21.0,29.20,North,9,8.0,20.0,82,0.00,,,0.00,Wunderground v.1.15,2013-04-02 12:04:00,
2013-04-02 08:09:00,25.9,21.4,29.20,NNE,19,7.0,20.0,83,0.00,,,0.00,Wunderground v.1.15,2013-04-02 12:09:00,
2013-04-02 08:14:00,25.6,20.9,29.21,NNE,20,7.0,20.0,82,0.00,,,0.00,Wunderground v.1.15,2013-04-02 12:14:00,
2013-04-02 08:19:00,25.7,21.3,29.21,NNE,27,7.0,20.0,83,0.00,,,0.00,Wunderground v.1.15,2013-04-02 12:19:00,
2013-04-02 08:24:00,26.4,21.7,29.21,North,360,8.0,20.0,82,0.00,,,0.00,Wunderground v.1.15,2013-04-02 12:24:00,
2013-04-02 08:34:00,26.3,21.0,29.22,NNE,32,9.0,20.0,80,0.00,,,0.00,Wunderground v.1.15,2013-04-02 12:34:00,
2013-04-02 08:39:00,25.8,20.8,29.22,NE,39,10.0,10.0,81,0.00,,,0.00,Wunderground v.1.15,2013-04-02 12:39:00,
2013-04-02 08:44:00,25.8,21.1,29.22,NNE,26,9.0,20.0,82,0.00,,,0.00,Wunderground v.1.15,2013-04-02 12:44:00,
2013-04-02 08:49:00,25.8,21.1,29.22,NE,34,8.0,8.0,82,0.00,,,0.00,Wunderground v.1.15,2013-04-02 12:49:00,
2013-04-02 08:54:00,26.0,21.3,29.22,NNE,25,7.0,20.0,82,0.00,,,0.00,Wunderground v.1.15,2013-04-02 12:54:00,
2013-04-02 08:59:00,26.3,21.6,29.22,North,10,7.0,20.0,82,0.00,,,0.00,Wunderground v.1.15,2013-04-02 12:59:00,
2013-04-02 09:09:00,26.7,21.1,29.23,NNE,21,10.0,10.0,79,0.00,,,0.00,Wunderground v.1.15,2013-04-02 13:09:00,
2013-04-02 09:14:00,26.9,21.0,29.22,NNW,347,10.0,14.0,78,0.00,,,0.00,Wunderground v.1.15,2013-04-02 13:14:00,
2013-04-02 09:19:00,27.0,20.7,29.23,NNW,340,10.0,10.0,77,0.00,,,0.00,Wunderground v.1.15,2013-04-02 13:19:00,
2013-04-02 09:24:00,27.1,20.8,29.23,NE,44,10.0,20.0,77,0.00,,,0.00,Wunderground v.1.15,2013-04-02 13:24:00,
2013-04-02 09:29:00,27.1,20.8,29.23,North,5,10.0,20.0,77,0.00,,,0.00,Wunderground v.1.15,2013-04-02 13:29:00,
2013-04-02 09:39:00,27.2,20.6,29.23,NE,34,11.0,20.0,76,0.00,,,0.00,Wunderground v.1.15,2013-04-02 13:39:00,
2013-04-02 09:44:00,27.3,20.7,29.23,NNE,21,10.0,20.0,76,0.00,,,0.00,Wunderground v.1.15,2013-04-02 13:44:00,
2013-04-02 09:49:00,27.5,20.9,29.23,North,5,9.0,20.0,76,0.00,,,0.00,Wunderground v.1.15,2013-04-02 13:49:00,
2013-04-02 09:54:00,27.8,21.5,29.23,NNE,21,8.0,20.0,77,0.00,,,0.00,Wunderground v.1.15,2013-04-02 13:54:00,
2013-04-02 09:59:00,27.7,21.4,29.23,NNE,30,9.0,20.0,77,0.00,,,0.00,Wunderground v.1.15,2013-04-02 13:59:00,
2013-04-02 10:04:00,27.7,22.3,29.23,NNE,16,9.0,20.0,80,0.00,,,0.00,Wunderground v.1.15,2013-04-02 14:04:00,
2013-04-02 10:09:00,27.7,22.6,29.23,NNE,21,7.0,20.0,81,0.00,,,0.00,Wunderground v.1.15,2013-04-02 14:09:00,
2013-04-02 10:14:00,27.8,23.0,29.23,NNW,346,7.0,20.0,82,0.00,,,0.00,Wunderground v.1.15,2013-04-02 14:14:00,
2013-04-02 10:19:00,27.8,23.3,29.23,North,355,7.0,20.0,83,0.00,,,0.00,Wunderground v.1.15,2013-04-02 14:19:00,
2013-04-02 10:24:00,28.1,23.9,29.23,North,360,7.0,20.0,84,0.00,,,0.00,Wunderground v.1.15,2013-04-02 14:24:00,
2013-04-02 10:29:00,29.0,25.3,29.23,NNW,346,7.0,7.0,86,0.00,,,0.00,Wunderground v.1.15,2013-04-02 14:29:00,
2013-04-02 10:34:00,30.0,25.8,29.23,NNE,19,7.0,20.0,84,0.00,,,0.00,Wunderground v.1.15,2013-04-02 14:34:00,
2013-04-02 10:44:00,30.4,23.7,29.23,NW,317,7.0,20.0,76,0.00,,,0.00,Wunderground v.1.15,2013-04-02 14:44:00,
2013-04-02 10:49:00,30.2,23.5,29.23,ENE,71,7.0,7.0,76,0.00,,,0.00,Wunderground v.1.15,2013-04-02 14:49:00,
2013-04-02 10:54:00,30.3,24.3,29.23,NNW,331,6.0,20.0,78,0.00,,,0.00,Wunderground v.1.15,2013-04-02 14:54:00,
2013-04-02 10:59:00,30.5,24.1,29.23,NW,321,6.0,20.0,77,0.00,,,0.00,Wunderground v.1.15,2013-04-02 14:59:00,
2013-04-02 11:04:00,31.7,25.6,29.23,WNW,299,6.0,20.0,78,0.00,,,0.00,Wunderground v.1.15,2013-04-02 15:04:00,
2013-04-02 11:14:00,31.4,24.1,29.23,North,355,7.0,12.0,74,0.00,,,0.00,Wunderground v.1.15,2013-04-02 15:14:00,
2013-04-02 11:19:00,31.0,23.7,29.23,NNW,327,7.0,20.0,74,0.00,,,0.00,Wunderground v.1.15,2013-04-02 15:19:00,
2013-04-02 11:24:00,30.7,23.1,29.23,North,355,8.0,20.0,73,0.00,,,0.00,Wunderground v.1.15,2013-04-02 15:24:00,
2013-04-02 11:29:00,30.5,23.2,29.23,North,360,7.0,20.0,74,0.00,,,0.00,Wunderground v.1.15,2013-04-02 15:29:00,
2013-04-02 11:34:00,30.1,23.4,29.23,NNW,340,7.0,20.0,76,0.00,,,0.00,Wunderground v.1.15,2013-04-02 15:34:00,
2013-04-02 11:39:00,30.1,24.4,29.23,North,5,8.0,20.0,79,0.00,,,0.00,Wunderground v.1.15,2013-04-02 15:39:00,
2013-04-02 11:45:00,30.0,24.3,29.23,NNE,15,9.0,20.0,79,0.00,,,0.00,Wunderground v.1.15,2013-04-02 15:45:00,
2013-04-02 11:54:00,30.5,25.7,29.23,NNW,341,9.0,20.0,82,0.00,,,0.00,Wunderground v.1.15,2013-04-02 15:54:00,
2013-04-02 11:59:00,30.3,25.5,29.23,NNE,15,9.0,9.0,82,0.00,,,0.00,Wunderground v.1.15,2013-04-02 15:59:00,
2013-04-02 12:04:00,30.5,25.4,29.23,North,360,10.0,14.0,81,0.00,,,0.00,Wunderground v.1.15,2013-04-02 16:04:00,
2013-04-02 12:09:00,31.0,25.2,29.23,North,350,10.0,10.0,79,0.00,,,0.00,Wunderground v.1.15,2013-04-02 16:09:00,
2013-04-02 12:14:00,31.9,25.8,29.23,North,11,9.0,20.0,78,0.00,,,0.00,Wunderground v.1.15,2013-04-02 16:14:00,
2013-04-02 12:19:00,33.2,25.8,29.23,NNW,348,9.0,9.0,74,0.00,,,0.00,Wunderground v.1.15,2013-04-02 16:19:00,
2013-04-02 12:24:00,33.8,25.4,29.22,North,5,10.0,13.0,71,0.00,,,0.00,Wunderground v.1.15,2013-04-02 16:24:00,
2013-04-02 12:29:00,33.4,25.0,29.22,North,11,10.0,20.0,71,0.00,,,0.00,Wunderground v.1.15,2013-04-02 16:29:00,
2013-04-02 12:34:00,32.8,24.8,29.22,NE,34,10.0,20.0,72,0.00,,,0.00,Wunderground v.1.15,2013-04-02 16:34:00,
2013-04-02 12:39:00,32.7,24.3,29.22,NW,315,9.0,20.0,71,0.00,,,0.00,Wunderground v.1.15,2013-04-02 16:39:00,
2013-04-02 12:44:00,33.1,24.0,29.22,NNE,13,10.0,20.0,69,0.00,,,0.00,Wunderground v.1.15,2013-04-02 16:44:00,
2013-04-02 12:54:00,34.2,25.1,29.22,NNW,337,11.0,20.0,69,0.00,,,0.00,Wunderground v.1.15,2013-04-02 16:54:00,
2013-04-02 12:59:00,33.7,25.0,29.22,NNE,12,10.0,20.0,70,0.00,,,0.00,Wunderground v.1.15,2013-04-02 16:59:00,
2013-04-02 13:05:00,33.0,25.0,29.22,NNE,23,10.0,20.0,72,0.00,,,0.00,Wunderground v.1.15,2013-04-02 17:05:00,
2013-04-02 13:14:00,33.0,26.3,29.22,NNE,14,8.0,20.0,76,0.00,,,0.00,Wunderground v.1.15,2013-04-02 17:14:00,
2013-04-02 13:19:00,33.5,26.1,29.21,North,11,8.0,20.0,74,0.00,,,0.00,Wunderground v.1.15,2013-04-02 17:19:00,
2013-04-02 13:24:00,34.8,25.7,29.21,NNW,346,9.0,20.0,69,0.00,,,0.00,Wunderground v.1.15,2013-04-02 17:24:00,
2013-04-02 13:29:00,35.3,24.7,29.21,NNW,344,9.0,9.0,65,0.00,,,0.00,Wunderground v.1.15,2013-04-02 17:29:00,
2013-04-02 13:34:00,33.0,24.6,29.21,NNE,29,10.0,11.0,71,0.00,,,0.00,Wunderground v.1.15,2013-04-02 17:34:00,
2013-04-02 13:39:00,32.0,26.2,29.21,NNE,28,11.0,11.0,79,0.00,,,0.00,Wunderground v.1.15,2013-04-02 17:39:00,
2013-04-02 13:44:00,32.6,26.5,29.20,NNW,340,9.0,20.0,78,0.00,,,0.00,Wunderground v.1.15,2013-04-02 17:44:00,
2013-04-02 13:49:00,32.7,25.0,29.21,North,9,10.0,20.0,73,0.00,,,0.00,Wunderground v.1.15,2013-04-02 17:49:00,
2013-04-02 13:55:00,30.4,25.3,29.21,NNE,22,13.0,20.0,81,0.00,,,0.00,Wunderground v.1.15,2013-04-02 17:55:00,
2013-04-02 14:04:00,32.3,28.9,29.20,NNE,17,10.0,20.0,87,0.00,,,0.00,Wunderground v.1.15,2013-04-02 18:04:00,
2013-04-02 14:09:00,31.9,25.8,29.20,NNE,18,11.0,20.0,78,0.00,,,0.00,Wunderground v.1.15,2013-04-02 18:09:00,
2013-04-02 14:14:00,31.8,25.4,29.21,North,355,12.0,20.0,77,0.00,,,0.00,Wunderground v.1.15,2013-04-02 18:14:00,
2013-04-02 14:19:00,32.6,27.1,29.20,North,349,9.0,9.0,80,0.00,,,0.00,Wunderground v.1.15,2013-04-02 18:19:00,
2013-04-02 14:24:00,32.8,27.0,29.20,WNW,296,7.0,20.0,79,0.00,,,0.00,Wunderground v.1.15,2013-04-02 18:24:00,
2013-04-02 14:34:00,32.3,24.3,29.21,North,350,11.0,20.0,72,0.00,,,0.00,Wunderground v.1.15,2013-04-02 18:34:00,
2013-04-02 14:39:00,32.7,25.3,29.20,WNW,299,11.0,11.0,74,0.00,,,0.00,Wunderground v.1.15,2013-04-02 18:39:00,
2013-04-02 14:44:00,33.7,26.0,29.21,NNW,338,9.0,20.0,73,0.00,,,0.00,Wunderground v.1.15,2013-04-02 18:44:00,
2013-04-02 14:49:00,33.7,25.0,29.21,North,5,9.0,20.0,70,0.00,,,0.00,Wunderground v.1.15,2013-04-02 18:49:00,
2013-04-02 14:59:00,33.7,24.6,29.20,North,349,11.0,20.0,69,0.00,,,0.00,Wunderground v.1.15,2013-04-02 18:59:00,
2013-04-02 15:04:00,33.9,23.7,29.21,North,360,10.0,20.0,66,0.00,,,0.00,Wunderground v.1.15,2013-04-02 19:04:00,
2013-04-02 15:09:00,33.9,23.4,29.20,NNE,25,11.0,11.0,65,0.00,,,0.00,Wunderground v.1.15,2013-04-02 19:09:00,
2013-04-02 15:14:00,34.4,24.2,29.20,NNE,22,11.0,13.0,66,0.00,,,0.00,Wunderground v.1.15,2013-04-02 19:14:00,
2013-04-02 15:19:00,33.8,22.9,29.20,NNE,15,12.0,12.0,64,0.00,,,0.00,Wunderground v.1.15,2013-04-02 19:19:00,
2013-04-02 15:24:00,34.3,22.2,29.20,NNE,22,13.0,14.0,61,0.00,,,0.00,Wunderground v.1.15,2013-04-02 19:24:00,
2013-04-02 15:30:00,35.1,22.6,29.21,North,350,14.0,14.0,60,0.00,,,0.00,Wunderground v.1.15,2013-04-02 19:30:00,
2013-04-02 15:39:00,34.7,22.2,29.20,NNW,343,12.0,20.0,60,0.00,,,0.00,Wunderground v.1.15,2013-04-02 19:39:00,
2013-04-02 15:44:00,34.6,22.1,29.20,NNW,344,10.0,20.0,60,0.00,,,0.00,Wunderground v.1.15,2013-04-02 19:44:00,
2013-04-02 15:49:00,34.7,21.4,29.20,NNE,22,11.0,20.0,58,0.00,,,0.00,Wunderground v.1.15,2013-04-02 19:49:00,
2013-04-02 15:54:00,35.4,22.1,29.20,NNW,347,13.0,20.0,58,0.00,,,0.00,Wunderground v.1.15,2013-04-02 19:54:00,
2013-04-02 16:00:00,35.2,20.2,29.20,NNW,346,14.0,14.0,54,0.00,,,0.00,Wunderground v.1.15,2013-04-02 20:00:00,
2013-04-02 16:09:00,35.3,20.3,29.20,NNE,16,15.0,23.0,54,0.00,,,0.00,Wunderground v.1.15,2013-04-02 20:09:00,
2013-04-02 16:15:00,34.8,18.9,29.20,North,355,16.0,23.0,52,0.00,,,0.00,Wunderground v.1.15,2013-04-02 20:15:00,
2013-04-02 16:24:00,34.7,20.2,29.20,NNE,15,14.0,16.0,55,0.00,,,0.00,Wunderground v.1.15,2013-04-02 20:24:00,
2013-04-02 16:29:00,34.9,19.9,29.21,North,355,15.0,15.0,54,0.00,,,0.00,Wunderground v.1.15,2013-04-02 20:29:00,
2013-04-02 16:39:00,35.3,20.3,29.21,NNE,27,13.0,20.0,54,0.00,,,0.00,Wunderground v.1.15,2013-04-02 20:39:00,
2013-04-02 16:44:00,35.5,20.9,29.21,NNE,24,13.0,20.0,55,0.00,,,0.00,Wunderground v.1.15,2013-04-02 20:44:00,
2013-04-02 16:49:00,35.5,20.5,29.21,NNE,12,13.0,20.0,54,0.00,,,0.00,Wunderground v.1.15,2013-04-02 20:49:00,
2013-04-02 16:54:00,36.2,22.4,29.21,NNW,347,13.0,20.0,57,0.00,,,0.00,Wunderground v.1.15,2013-04-02 20:54:00,
2013-04-02 16:59:00,35.8,21.2,29.21,NNW,343,12.0,20.0,55,0.00,,,0.00,Wunderground v.1.15,2013-04-02 20:59:00,
2013-04-02 17:04:00,35.2,21.5,29.22,NNE,28,13.0,20.0,57,0.00,,,0.00,Wunderground v.1.15,2013-04-02 21:04:00,
2013-04-02 17:09:00,35.8,21.6,29.22,NNE,26,13.0,23.0,56,0.00,,,0.00,Wunderground v.1.15,2013-04-02 21:09:00,
2013-04-02 17:14:00,36.0,21.8,29.22,NNE,17,14.0,23.0,56,0.00,,,0.00,Wunderground v.1.15,2013-04-02 21:14:00,
2013-04-02 17:24:00,35.1,20.1,29.22,NNE,25,14.0,25.0,54,0.00,,,0.00,Wunderground v.1.15,2013-04-02 21:24:00,
2013-04-02 17:29:00,35.2,19.8,29.22,NNW,344,15.0,15.0,53,0.00,,,0.00,Wunderground v.1.15,2013-04-02 21:29:00,
2013-04-02 17:34:00,35.1,19.7,29.23,NE,49,14.0,20.0,53,0.00,,,0.00,Wunderground v.1.15,2013-04-02 21:34:00,
2013-04-02 17:39:00,34.8,18.9,29.23,North,355,14.0,14.0,52,0.00,,,0.00,Wunderground v.1.15,2013-04-02 21:39:00,
2013-04-02 17:44:00,35.0,20.0,29.23,NNE,17,14.0,15.0,54,0.00,,,0.00,Wunderground v.1.15,2013-04-02 21:44:00,
2013-04-02 17:54:00,34.5,19.1,29.24,NNE,23,16.0,20.0,53,0.00,,,0.00,Wunderground v.1.15,2013-04-02 21:54:00,
2013-04-02 17:59:00,35.0,18.7,29.24,NNE,24,17.0,17.0,51,0.00,,,0.00,Wunderground v.1.15,2013-04-02 21:59:00,
2013-04-02 18:04:00,34.9,18.1,29.24,NNE,28,17.0,20.0,50,0.00,,,0.00,Wunderground v.1.15,2013-04-02 22:04:00,
2013-04-02 18:09:00,34.3,18.5,29.24,North,5,16.0,20.0,52,0.00,,,0.00,Wunderground v.1.15,2013-04-02 22:09:00,
2013-04-02 18:14:00,34.1,19.2,29.24,NE,46,15.0,20.0,54,0.00,,,0.00,Wunderground v.1.15,2013-04-02 22:14:00,
2013-04-02 18:19:00,33.8,19.3,29.25,NE,38,15.0,20.0,55,0.00,,,0.00,Wunderground v.1.15,2013-04-02 22:19:00,
2013-04-02 18:29:00,33.2,17.9,29.24,NNE,18,15.0,20.0,53,0.00,,,0.00,Wunderground v.1.15,2013-04-02 22:29:00,
2013-04-02 18:35:00,33.3,18.4,29.25,NNE,30,15.0,20.0,54,0.00,,,0.00,Wunderground v.1.15,2013-04-02 22:35:00,
2013-04-02 18:44:00,33.5,19.0,29.25,NNE,24,17.0,17.0,55,0.00,,,0.00,Wunderground v.1.15,2013-04-02 22:44:00,
2013-04-02 18:49:00,33.5,18.6,29.25,NE,37,16.0,16.0,54,0.00,,,0.00,Wunderground v.1.15,2013-04-02 22:49:00,
2013-04-02 18:54:00,33.4,18.9,29.25,NE,45,13.0,20.0,55,0.00,,,0.00,Wunderground v.1.15,2013-04-02 22:54:00,
2013-04-02 19:04:00,32.8,19.6,29.26,NNE,29,16.0,20.0,58,0.00,,,0.00,Wunderground v.1.15,2013-04-02 23:04:00,
2013-04-02 19:09:00,32.6,19.8,29.26,NNE,19,15.0,15.0,59,0.00,,,0.00,Wunderground v.1.15,2013-04-02 23:09:00,
2013-04-02 19:14:00,32.3,20.3,29.26,North,5,13.0,20.0,61,0.00,,,0.00,Wunderground v.1.15,2013-04-02 23:14:00,
2013-04-02 19:19:00,32.2,20.6,29.26,NNE,12,14.0,14.0,62,0.00,,,0.00,Wunderground v.1.15,2013-04-02 23:19:00,
2013-04-02 19:24:00,32.1,20.9,29.27,NNW,336,15.0,15.0,63,0.00,,,0.00,Wunderground v.1.15,2013-04-02 23:24:00,
2013-04-02 19:34:00,31.8,21.0,29.27,NNE,19,10.0,20.0,64,0.00,,,0.00,Wunderground v.1.15,2013-04-02 23:34:00,
2013-04-02 19:39:00,31.6,20.8,29.27,North,350,10.0,20.0,64,0.00,,,0.00,Wunderground v.1.15,2013-04-02 23:39:00,
2013-04-02 19:44:00,31.5,20.7,29.27,NNE,16,10.0,20.0,64,0.00,,,0.00,Wunderground v.1.15,2013-04-02 23:44:00,
2013-04-02 19:49:00,31.3,20.2,29.27,NNE,12,10.0,20.0,63,0.00,,,0.00,Wunderground v.1.15,2013-04-02 23:49:00,
2013-04-02 19:54:00,31.3,19.8,29.28,NNE,24,11.0,20.0,62,0.00,,,0.00,Wunderground v.1.15,2013-04-02 23:54:00,
2013-04-02 19:59:00,31.2,19.7,29.27,North,360,10.0,20.0,62,0.00,,,0.00,Wunderground v.1.15,2013-04-02 23:59:00,
2013-04-02 20:04:00,31.2,20.1,29.28,North,355,9.0,20.0,63,0.00,,,0.00,Wunderground v.1.15,2013-04-03 00:04:00,
2013-04-02 20:09:00,31.0,19.5,29.28,NNE,30,9.0,20.0,62,0.00,,,0.00,Wunderground v.1.15,2013-04-03 00:09:00,
2013-04-02 20:14:00,31.0,19.9,29.28,NNE,17,9.0,20.0,63,0.00,,,0.00,Wunderground v.1.15,2013-04-03 00:14:00,
2013-04-02 20:19:00,30.9,20.1,29.28,NNE,12,8.0,20.0,64,0.00,,,0.00,Wunderground v.1.15,2013-04-03 00:19:00,
2013-04-02 20:24:00,30.9,20.1,29.28,North,355,8.0,20.0,64,0.00,,,0.00,Wunderground v.1.15,2013-04-03 00:24:00,
2013-04-02 20:34:00,30.8,20.4,29.29,NNW,347,7.0,20.0,65,0.00,,,0.00,Wunderground v.1.15,2013-04-03 00:34:00,
2013-04-02 20:44:00,30.7,21.0,29.29,North,355,7.0,20.0,67,0.00,,,0.00,Wunderground v.1.15,2013-04-03 00:44:00,
2013-04-02 20:49:00,30.7,21.4,29.29,North,350,6.0,20.0,68,0.00,,,0.00,Wunderground v.1.15,2013-04-03 00:49:00,
2013-04-02 20:54:00,30.6,21.3,29.29,NNW,333,7.0,20.0,68,0.00,,,0.00,Wunderground v.1.15,2013-04-03 00:54:00,
2013-04-02 20:59:00,30.5,21.2,29.29,North,355,7.0,7.0,68,0.00,,,0.00,Wunderground v.1.15,2013-04-03 00:59:00,
2013-04-02 21:05:00,30.5,21.5,29.30,North,350,7.0,10.0,69,0.00,,,0.00,Wunderground v.1.15,2013-04-03 01:05:00,
2013-04-02 21:14:00,30.3,21.7,29.30,North,351,7.0,20.0,70,0.00,,,0.00,Wunderground v.1.15,2013-04-03 01:14:00,
2013-04-02 21:19:00,30.3,21.7,29.30,NNW,344,7.0,7.0,70,0.00,,,0.00,Wunderground v.1.15,2013-04-03 01:19:00,
2013-04-02 21:24:00,30.3,21.7,29.30,North,349,7.0,20.0,70,0.00,,,0.00,Wunderground v.1.15,2013-04-03 01:24:00,
2013-04-02 21:29:00,30.2,21.9,29.30,NW,306,6.0,6.0,71,0.00,,,0.00,Wunderground v.1.15,2013-04-03 01:29:00,
2013-04-02 21:34:00,30.2,21.9,29.30,North,355,6.0,20.0,71,0.00,,,0.00,Wunderground v.1.15,2013-04-03 01:34:00,
2013-04-02 21:39:00,30.2,22.3,29.30,NNW,338,6.0,6.0,72,0.00,,,0.00,Wunderground v.1.15,2013-04-03 01:39:00,
2013-04-02 21:44:00,30.1,22.2,29.30,NNW,348,5.0,7.0,72,0.00,,,0.00,Wunderground v.1.15,2013-04-03 01:44:00,
2013-04-02 21:49:00,30.0,22.4,29.30,North,355,5.0,20.0,73,0.00,,,0.00,Wunderground v.1.15,2013-04-03 01:49:00,
2013-04-02 21:59:00,29.9,22.3,29.30,NNW,348,5.0,20.0,73,0.00,,,0.00,Wunderground v.1.15,2013-04-03 01:59:00,
2013-04-02 22:04:00,30.0,22.4,29.31,North,355,6.0,20.0,73,0.00,,,0.00,Wunderground v.1.15,2013-04-03 02:04:00,
2013-04-02 22:09:00,30.1,22.5,29.31,NNW,336,6.0,6.0,73,0.00,,,0.00,Wunderground v.1.15,2013-04-03 02:09:00,
2013-04-02 22:14:00,30.1,22.8,29.31,NNW,341,5.0,20.0,74,0.00,,,0.00,Wunderground v.1.15,2013-04-03 02:14:00,
2013-04-02 22:20:00,30.1,22.8,29.31,NNW,331,6.0,20.0,74,0.00,,,0.00,Wunderground v.1.15,2013-04-03 02:20:00,
2013-04-02 22:25:00,30.1,22.5,29.31,NNW,340,6.0,20.0,73,0.00,,,0.00,Wunderground v.1.15,2013-04-03 02:25:00,
2013-04-02 22:34:00,30.3,22.7,29.31,North,11,7.0,20.0,73,0.00,,,0.00,Wunderground v.1.15,2013-04-03 02:34:00,
2013-04-02 22:39:00,30.5,22.2,29.30,NNE,19,7.0,20.0,71,0.00,,,0.00,Wunderground v.1.15,2013-04-03 02:39:00,
2013-04-02 22:44:00,30.6,22.0,29.30,North,350,7.0,20.0,70,0.00,,,0.00,Wunderground v.1.15,2013-04-03 02:44:00,
2013-04-02 22:49:00,30.5,21.9,29.30,North,10,7.0,7.0,70,0.00,,,0.00,Wunderground v.1.15,2013-04-03 02:49:00,
2013-04-02 22:59:00,30.5,20.8,29.30,North,11,8.0,8.0,67,0.00,,,0.00,Wunderground v.1.15,2013-04-03 02:59:00,
2013-04-02 23:04:00,30.6,20.6,29.31,North,349,8.0,20.0,66,0.00,,,0.00,Wunderground v.1.15,2013-04-03 03:04:00,
2013-04-02 23:09:00,30.5,20.5,29.31,NNE,25,8.0,20.0,66,0.00,,,0.00,Wunderground v.1.15,2013-04-03 03:09:00,
2013-04-02 23:14:00,30.3,19.9,29.31,NNE,26,8.0,20.0,65,0.00,,,0.00,Wunderground v.1.15,2013-04-03 03:14:00,
2013-04-02 23:19:00,30.4,20.0,29.31,NNE,30,9.0,20.0,65,0.00,,,0.00,Wunderground v.1.15,2013-04-03 03:19:00,
2013-04-02 23:29:00,30.3,20.3,29.31,NE,40,9.0,20.0,66,0.00,,,0.00,Wunderground v.1.15,2013-04-03 03:29:00,
2013-04-02 23:35:00,30.4,20.4,29.31,NNE,13,9.0,20.0,66,0.00,,,0.00,Wunderground v.1.15,2013-04-03 03:35:00,
2013-04-02 23:44:00,30.5,20.1,29.31,NNE,13,10.0,20.0,65,0.00,,,0.00,Wunderground v.1.15,2013-04-03 03:44:00,
2013-04-02 23:49:00,30.4,20.4,29.30,NNW,334,10.0,20.0,66,0.00,,,0.00,Wunderground v.1.15,2013-04-03 03:49:00,
2013-04-02 23:54:00,30.3,20.3,29.30,North,9,9.0,20.0,66,0.00,,,0.00,Wunderground v.1.15,2013-04-03 03:54:00,
2013-04-02 23:59:00,30.2,20.2,29.31,NNE,17,9.0,9.0,66,0.00,,,0.00,Wunderground v.1.15,2013-04-03 03:59:00,